This is the latest recevied weather packets stored in our database for station/object KB4MOX. If no packets are shown the sender has not sent any weather packets the latest 10 day(s).
| Time | Temp. | Humidity | Pressure | Rain* | Wind** | Luminosity | Snow |
|---|---|---|---|---|---|---|---|
| 1787963422 | 25.56° C | 86% | 1017.1 hPa | 0 mm | - | 0 W/m² | - |
| 1787963117 | 26.11° C | 85% | 1017.1 hPa | 0 mm | - | 0 W/m² | - |
| 1787962816 | 26.11° C | 85% | 1016.9 hPa | 0 mm | - | 0 W/m² | - |
| 1787962515 | 26.11° C | 84% | 1016.8 hPa | 0 mm | - | 0 W/m² | - |
| 1787962214 | 26.67° C | 83% | 1016.8 hPa | 0 mm | - | 1 W/m² | - |
| 1787961909 | 26.67° C | 82% | 1016.8 hPa | 0 mm | - | 1 W/m² | - |
| 1787961609 | 26.67° C | 81% | 1016.7 hPa | 0 mm | - | 3 W/m² | - |
| 1787961302 | 27.22° C | 81% | 1016.7 hPa | 0 mm | - | 4 W/m² | - |
| 1787960996 | 27.22° C | 80% | 1016.8 hPa | 0 mm | - | 6 W/m² | - |
| 1787960692 | 27.22° C | 80% | 1017.1 hPa | 0 mm | - | 11 W/m² | - |
| 1787960390 | 27.78° C | 78% | 1017 hPa | 0 mm | - | 25 W/m² | - |
| 1787960085 | 27.78° C | 78% | 1017 hPa | 0 mm | - | 25 W/m² | - |
| 1787959780 | 27.78° C | 78% | 1016.9 hPa | 0 mm | - | 30 W/m² | - |
| 1787959475 | 28.33° C | 77% | 1016.9 hPa | 0 mm | - | 33 W/m² | - |
| 1787959170 | 28.33° C | 77% | 1016.8 hPa | 0 mm | - | 38 W/m² | - |
| 1787958865 | 28.89° C | 76% | 1016.8 hPa | 0 mm | - | 44 W/m² | - |
| 1787958560 | 28.89° C | 75% | 1016.9 hPa | 0 mm | - | 52 W/m² | - |
| 1787958256 | 28.89° C | 74% | 1017 hPa | 0 mm | - | 64 W/m² | - |
| 1787957955 | 28.89° C | 74% | 1016.8 hPa | 0 mm | - | 74 W/m² | - |
| 1787957655 | 28.89° C | 74% | 1017 hPa | 0 mm | - | 83 W/m² | - |
| 1787957351 | 29.44° C | 73% | 1016.8 hPa | 0 mm | - | 102 W/m² | - |
| 1787957050 | 29.44° C | 73% | 1016.7 hPa | 0 mm | - | 116 W/m² | - |
| 1787956749 | 29.44° C | 73% | 1016.7 hPa | 0 mm | - | 126 W/m² | - |
| 1787956445 | 28.89° C | 74% | 1016.6 hPa | 0 mm | - | 140 W/m² | - |
| 1787956140 | 28.89° C | 75% | 1016.7 hPa | 0 mm | - | 128 W/m² | - |
* Rain latest hour (hover to see other rain measurements)
** Current wind speed in m/s (hover to see current wind gust speed)